Regional Weather Roundup
Issued by NWS

Home | Current Version | Previous Version | Graphics & Text | Print | Product List | Glossary On
Versions: 1 2 3 4 5 6 7 8 9 10 11 12 13 14 15 16 17 18 19 20 21 22 23 24 25 26 27 28 29 30 31 32 33 34 35 36 37 38 39 40 41 42 43 44 45 46 47 48 49 50
000
ASUS45 KBOI 181710
RWRID
WEATHER ROUNDUP FOR IDAHO
NATIONAL WEATHER SERVICE BOISE ID
1000 AM MST THU DEC 18 2014

NOTE: "FAIR" INDICATES FEW OR NO CLOUDS BELOW 12000 FEET
WITH NO SIGNIFICANT WEATHER AND/OR OBSTRUCTIONS TO VISIBILITY

IDZ012-014-181800-
SOUTHWEST IDAHO


CITY           SKY/WX    TMP DP  RH WIND       PRES   REMARKS
BOISE          CLOUDY    39  31  72 SE12      30.10R WCI  32
CALDWELL       CLOUDY    37  27  65 E6        30.12S WCI  33
MOUNTAIN HOME  CLOUDY    36  27  69 E16       30.12R WCI  26
$$

IDZ016-017-181800-
SOUTHCENTRAL IDAHO


CITY           SKY/WX    TMP DP  RH WIND       PRES   REMARKS
BURLEY         MOSUNNY   30  25  81 CALM      30.12R
JEROME         CLOUDY    33  25  72 E8        30.13R WCI  26
TWIN FALLS     CLOUDY    38  27  64 S8        30.11R WCI  32
$$

IDZ019>023-181800-
SOUTHEAST IDAHO


CITY           SKY/WX    TMP DP  RH WIND       PRES   REMARKS
IDAHO FALLS    PTSUNNY   25  23  92 W5        30.13R WCI  19
POCATELLO      PTSUNNY   27  26  96 CALM      30.14R
REXBURG        CLOUDY    29  27  92 CALM      30.12R FOG
$$

IDZ006-010-011-018-031-032-181800-
CENTRAL IDAHO MOUNTAINS


CITY           SKY/WX    TMP DP  RH WIND       PRES   REMARKS
MCCALL         CLOUDY    32  29  88 SE9       30.02R WCI  24
HAILEY         CLOUDY    28  21  74 NW6       30.12R WCI  22
STANLEY          N/A     21  16  81 CALM      30.07R
SALMON         MOSUNNY   21  18  86 MISG      30.12R
CHALLIS        CLOUDY    21  17  84 SE3       30.11R
$$

IDZ002-004-006-007-026-181800-
NORTHERN IDAHO


CITY           SKY/WX    TMP DP  RH WIND       PRES   REMARKS
LEWISTON       CLOUDY    39  37  92 CALM      30.03R
LOWELL           N/A     36  34  92 CALM      30.10R
COEUR D`ALENE  CLOUDY    37  36  93 S5        29.99R WCI  34
MULLAN PASS    SNOW      28  27  96 S5        29.92R VSB 1/4 WCI  23
$$



USA.gov is the U.S. government's official web portal to all federal, state and local government web resources and services.